User: anonymous   Login
Location: Unspecified
(0.0000°N, 0.0000°E)
Time: 00:56:50
(UTC+01:00)
Language:

ARIANE 5 R/B - Orbit

View from above orbital plane
View from above orbital plane
View from above satellite
View from above satellite

Ground track
Ground track

The orbit data is extracted from the following two-line orbital elements,

1 28379U 04027B   18050.35716681 -.00000137 +00000-0 -33122-3 0  9990
2 28379 006.5546 246.5657 7299677 235.8156 009.0665 02.07928219103267
Epoch (UTC): 19 February 2018 08:34:19
Eccentricity: 0.7299677
inclination: 6.5546°
perigee height: 623 km
apogee height: 38478 km
right ascension of ascending node: 246.5657°
argument of perigee: 235.8156°
revolutions per day: 2.07928219
mean anomaly at epoch: 9.0665°
orbit number at epoch: 10326

The dashed part of the orbit path shows where the satellite is in the earth's shadow,  

DLR